Content
SEND FEEDBACK

Daily
Averages
Monthly
Summary
Canada

VANCOUVER, BRITISH COLUMBIA


Home > North America > Canada > British Columbia
Elevation: 7 feet     Latitude: 49 11N     Longitude: 123 10W

WEATHER
 
SELECT A DAY
Number of Records: 249,842;   Date Range: 5/15/97 - 9/17/14
 
SHARE

PRINT THIS DATA

[ ← Previous Day ]
WEATHER ALMANAC - FEBRUARY 25, 2013
[ Next Day → ]
[ °C ]   °F
Weather ElementAverageHighLow
Temperature44.1 °F48.2 °F (12:15 pm)37.4 °F (11:15 pm)
Dewpoint34.9 °F39.2 °F (1:55 am)32 °F (12:55 pm)
Humidity71.4 %93 % (1:55 am)54 % (12:55 pm)
Barometer29.97 in30.25 in (11:35 pm)29.79 in (3:15 am)
Wind Speed10.3 mph21.9 mph (6:55 am)
Wind Gust33.4 mph (7:55 am)
Weather ElementAverage
Visibility9.3 mi
Wind DirectionSSW (193.8 °)

Weather ElementTotal
Precipitation0.05 in
Heating Degree Days22.2 (Base 65)
Averaged from 68 records on February 25, 2013
WEATHER CONDITIONS BREAKOUT
WIND DIRECTION BREAKOUT
WEATHER BY HOUR - FEBRUARY 25, 2013
[ °C ]   °F
Local TimeTemperatureDewpointHumidityBarometerVisibilityWind DirectionWind SpeedGust SpeedPrecipitationEventsConditions
12:35 AM44.6 °F35.6 °F71 %29.82 in10.0 miSouth (180°)13.8 mph29.9 mphMostly Cloudy
12:55 AM44.6 °F37.4 °F76 %29.81 in10.0 miSouth (180°)15.0 mph24.2 mphRainLight Rain
1:15 AM44.6 °F37.4 °F76 %29.82 in8.0 miSouth (180°)10.4 mph27.6 mphRainLight Rain
1:35 AM42.8 °F37.4 °F81 %29.82 in8.0 miSouth (170°)10.4 mph23.0 mphRainLight Rain
1:55 AM41.0 °F39.2 °F93 %29.82 in7.0 miSouth (180°)13.8 mph24.2 mphRainLight Rain
2:15 AM41.0 °F39.2 °F93 %29.83 in4.0 miSSW (200°)16.1 mph21.9 mph0.01 inRainLight Rain
2:35 AM41.0 °F39.2 °F93 %29.83 in4.0 miSouth (190°)12.7 mph0.02 inOvercast
2:55 AM41.0 °F39.2 °F93 %29.80 in8.0 miSouth (180°)12.7 mph19.6 mph0.02 inMostly Cloudy
3:15 AM41.0 °F39.2 °F93 %29.79 in10.0 miSouth (180°)11.5 mph19.6 mphMostly Cloudy
3:35 AM41.0 °F39.2 °F93 %29.79 in10.0 miSSW (200°)13.8 mph23.0 mphMostly Cloudy
3:55 AM41.0 °F39.2 °F93 %29.79 in10.0 miSouth (190°)13.8 mph24.2 mphScattered Clouds
4:15 AM42.8 °F39.2 °F87 %29.79 in10.0 miSouth (180°)11.5 mph24.2 mphMostly Cloudy
4:35 AM41.0 °F39.2 °F93 %29.81 in10.0 miSouth (190°)12.7 mph23.0 mphScattered Clouds
4:55 AM41.0 °F37.4 °F87 %29.81 in10.0 miSSW (200°)13.8 mph21.9 mphPartly Cloudy
5:15 AM42.8 °F37.4 °F81 %29.83 in10.0 miSSW (200°)17.3 mph20.7 mphMostly Cloudy
5:35 AM42.8 °F37.4 °F81 %29.83 in10.0 miSouth (190°)16.1 mph21.9 mphMostly Cloudy
5:55 AM42.8 °F37.4 °F81 %29.83 in10.0 miSouth (190°)17.3 mph24.2 mphMostly Cloudy
6:15 AM42.8 °F37.4 °F81 %29.83 in10.0 miSSW (200°)17.3 mph26.5 mphScattered Clouds
6:35 AM42.8 °F37.4 °F81 %29.84 in10.0 miSSW (200°)16.1 mph27.6 mphPartly Cloudy
6:55 AM42.8 °F37.4 °F81 %29.82 in10.0 miSSW (200°)21.9 mph27.6 mphScattered Clouds
7:15 AM41.0 °F37.4 °F87 %29.82 in10.0 miSSW (200°)17.3 mph32.2 mphMostly Cloudy
7:35 AM42.8 °F37.4 °F81 %29.81 in10.0 miSouth (190°)17.3 mph26.5 mphMostly Cloudy
7:55 AM42.8 °F37.4 °F81 %29.80 in10.0 miSouth (190°)21.9 mph33.4 mphScattered Clouds
8:15 AM42.8 °F37.4 °F81 %29.80 in8.0 miSSW (200°)21.9 mph32.2 mphRainLight Rain
8:35 AM42.8 °F37.4 °F81 %29.82 in6.0 miSSW (210°)17.3 mph26.5 mphRainLight Rain
9:15 AM42.8 °F37.4 °F81 %29.85 in9.0 miSSW (210°)12.7 mph26.5 mphPartly Cloudy
9:35 AM44.6 °F37.4 °F76 %29.86 in8.0 miSW (230°)10.4 mph16.1 mphPartly Cloudy
9:55 AM44.6 °F37.4 °F76 %29.88 in8.0 miSW (230°)10.4 mph19.6 mphPartly Cloudy
10:15 AM44.6 °F35.6 °F71 %29.89 in5.0 miSW (220°)11.5 mph19.6 mphRainLight Rain
10:35 AM44.6 °F35.6 °F71 %29.90 in8.0 miSW (220°)9.2 mphRainLight Rain
10:55 AM44.6 °F35.6 °F71 %29.91 in9.0 miSW (220°)11.5 mph20.7 mphScattered Clouds
11:15 AM46.4 °F35.6 °F66 %29.92 in9.0 miSW (230°)9.2 mph17.3 mphScattered Clouds
11:35 AM46.4 °F35.6 °F66 %29.93 in9.0 miSW (220°)12.7 mph17.3 mphClear
11:55 AM46.4 °F35.6 °F66 %29.95 in8.0 miSW (220°)10.4 mph16.1 mphClear
12:15 PM48.2 °F33.8 °F58 %29.95 in9.0 miSW (220°)13.8 mph25.3 mphClear
12:35 PM48.2 °F33.8 °F58 %29.97 in8.0 miWSW (250°)8.1 mph17.3 mphClear
12:55 PM48.2 °F32.0 °F54 %29.97 in10.0 miWSW (250°)12.7 mph18.4 mphClear
1:15 PM48.2 °F32.0 °F54 %29.98 in10.0 miSW (230°)12.7 mph19.6 mphClear
1:35 PM48.2 °F32.0 °F54 %29.99 in10.0 miWSW (250°)12.7 mph16.1 mphClear
1:55 PM48.2 °F32.0 °F54 %30.00 in10.0 miWSW (250°)9.2 mph19.6 mphPartly Cloudy
2:15 PM48.2 °F32.0 °F54 %30.01 in10.0 miWSW (250°)8.1 mphPartly Cloudy
2:35 PM48.2 °F32.0 °F54 %30.02 in10.0 miWSW (240°)10.4 mph18.4 mphPartly Cloudy
2:55 PM48.2 °F32.0 °F54 %30.03 in10.0 miWSW (240°)10.4 mph16.1 mphPartly Cloudy
3:15 PM48.2 °F32.0 °F54 %30.04 in10.0 miWest (260°)8.1 mphClear
3:35 PM48.2 °F32.0 °F54 %30.05 in10.0 miSW (220°)8.1 mph16.1 mphClear
3:55 PM48.2 °F32.0 °F54 %30.06 in10.0 miWSW (240°)4.6 mphClear
4:15 PM48.2 °F32.0 °F54 %30.07 in10.0 miWSW (240°)4.6 mphScattered Clouds
4:35 PM46.4 °F32.0 °F57 %30.08 in9.0 miWest (270°)3.5 mphMostly Cloudy
4:55 PM46.4 °F35.6 °F66 %30.09 in10.0 miCalmMostly Cloudy
5:15 PM46.4 °F33.8 °F62 %30.09 in10.0 miWest (270°)3.5 mphOvercast
5:35 PM46.4 °F32.0 °F57 %30.10 in10.0 miSW (230°)5.8 mphMostly Cloudy
5:55 PM46.4 °F32.0 °F57 %30.11 in10.0 miWSW (240°)5.8 mphMostly Cloudy
6:15 PM46.4 °F32.0 °F57 %30.12 in10.0 miSW (220°)6.9 mphMostly Cloudy
6:55 PM44.6 °F32.0 °F61 %30.14 in10.0 miCalmMostly Cloudy
7:15 PM44.6 °F32.0 °F61 %30.15 in10.0 miSW (220°)5.8 mphPartly Cloudy
7:35 PM44.6 °F32.0 °F61 %30.16 in10.0 miSSW (210°)8.1 mphScattered Clouds
7:55 PM44.6 °F32.0 °F61 %30.17 in10.0 miSSW (200°)5.8 mphMostly Cloudy
8:15 PM44.6 °F32.0 °F61 %30.18 in10.0 miSSW (210°)5.8 mphScattered Clouds
8:35 PM44.6 °F32.0 °F61 %30.19 in10.0 miCalmScattered Clouds
8:55 PM42.8 °F32.0 °F66 %30.20 in10.0 miSSW (200°)5.8 mphScattered Clouds
9:15 PM42.8 °F32.0 °F66 %30.21 in10.0 miSouth (180°)6.9 mphScattered Clouds
9:35 PM42.8 °F32.0 °F66 %30.22 in10.0 miSSW (210°)6.9 mphScattered Clouds
10:15 PM41.0 °F32.0 °F70 %30.22 in10.0 miSSW (210°)3.5 mphScattered Clouds
10:35 PM39.2 °F32.0 °F75 %30.23 in10.0 miCalmClear
10:55 PM39.2 °F32.0 °F75 %30.23 in10.0 miCalmClear
11:15 PM37.4 °F32.0 °F81 %30.24 in10.0 miSSW (210°)5.8 mphClear
11:35 PM39.2 °F33.8 °F81 %30.25 in10.0 miSouth (190°)3.5 mphClear
11:55 PM39.2 °F33.8 °F81 %30.25 in10.0 miNorthClear
Hourly data recorded from CZBB, located miles away from Vancouver, British Columbia







STORIES FROM OUR PARTNERS